Content
SEND FEEDBACK

Daily
Averages
Monthly
Summary
United States of America

CAMPBELL, MISSOURI


Home > North America > United States > Missouri
Elevation: 310 feet     Latitude: 36 29N     Longitude: 090 04W

WEATHER
 
SELECT A DAY
Number of Records: 210,923;   Date Range: 1/1/95 - 10/23/14
 
SHARE

PRINT THIS DATA

[ ← Previous Day ]
WEATHER ALMANAC - JANUARY 31, 2013
[ Next Day → ]
[ °C ]   °F
Weather ElementAverageHighLow
Temperature31.9 °F48 °F (3:53 pm) (2:53 pm)
Dewpoint20.1 °F32 °F (4:53 pm) (7:00 pm)
Humidity61.5 %81 % (5:24 pm)41 % (3:53 pm)
Barometer30.14 in30.40 in (11:53 pm)30.01 in (1:53 am)
Wind Speed12.8 mph23 mph (5:24 pm)
Wind Gust35.7 mph (5:53 pm)
Weather ElementAverage
Visibility9.2 mi
Wind DirectionW (265.4 °)

Weather ElementTotal
Precipitation---
Heating Degree Days41 (Base 65)
Averaged from 24 records on January 31, 2013
WEATHER CONDITIONS BREAKOUT
WIND DIRECTION BREAKOUT
WEATHER BY HOUR - JANUARY 31, 2013
[ °C ]   °F
Local TimeTemperatureDewpointHumidityBarometerVisibilityWind DirectionWind SpeedGust SpeedPrecipitationEventsConditions
1:53 AM32.0 °F19.0 °F59 %30.01 in10.0 miWNW (290°)10.4 mphMostly Cloudy
2:53 AM32.0 °F19.0 °F59 %30.01 in10.0 miWest (280°)8.1 mphMostly Cloudy
3:53 AM30.9 °F19.0 °F61 %30.02 in10.0 miWNW (290°)6.9 mphScattered Clouds
4:53 AM30.0 °F19.9 °F66 %30.04 in10.0 miWSW (240°)3.5 mphClear
5:53 AM28.9 °F19.0 °F67 %30.06 in10.0 miWSW (250°)5.8 mphClear
6:53 AM28.9 °F19.9 °F69 %30.09 in10.0 miWSW (240°)6.9 mphPartly Cloudy
7:53 AM30.0 °F21.0 °F69 %30.10 in10.0 miSW (230°)8.1 mphOvercast
8:53 AM32.0 °F21.9 °F66 %30.12 in10.0 miSW (220°)8.1 mphScattered Clouds
9:53 AM35.1 °F23.0 °F61 %30.14 in10.0 miSW (220°)12.7 mphClear
10:53 AM37.9 °F21.9 °F53 %30.14 in10.0 miWest (260°)8.1 mphClear
11:53 AM39.0 °F26.1 °F60 %30.10 in10.0 miSSW (210°)10.4 mphClear
12:53 PM41.0 °F27.0 °F57 %30.07 in10.0 miSSW (210°)10.4 mphClear
2:53 PM0.0 °F0.0 °F30.04 inNorth
3:53 PM48.0 °F25.0 °F41 %30.07 in10.0 miWNW (290°)16.1 mph25.3 mphOvercast
4:53 PM39.9 °F32.0 °F73 %30.11 in10.0 miNW (320°)17.3 mph25.3 mphOvercast
5:24 PM35.6 °F30.2 °F81 %30.12 in2.5 miNW (310°)23.0 mph32.2 mph0.00 inSnowLight Snow
5:27 PM35.6 °F30.2 °F81 %30.12 in3.0 miNW (310°)18.4 mph32.2 mph0.00 inSnowLight Snow
5:53 PM36.0 °F28.9 °F76 %30.17 in7.0 miWNW (300°)20.7 mph35.7 mph0.00 inSnowLight Snow
6:53 PM35.1 °F26.1 °F70 %30.21 in10.0 miWNW (300°)16.1 mph28.8 mph0.00 inOvercast
7:53 PM32.0 °F18.0 °F56 %30.24 in10.0 miNW (310°)17.3 mph25.3 mphPartly Cloudy
8:53 PM30.0 °F12.0 °F47 %30.30 in10.0 miNNW (330°)13.8 mphClear
9:53 PM27.0 °F8.1 °F45 %30.33 in10.0 miNW (320°)16.1 mph23.0 mphClear
10:53 PM26.1 °F8.1 °F47 %30.38 in10.0 miNW (310°)18.4 mph27.6 mphClear
11:53 PM23.0 °F7.0 °F50 %30.40 in10.0 miNNW (330°)18.4 mph25.3 mphClear
Hourly data recorded from KPOF, located miles away from Campbell, Missouri







STORIES FROM OUR PARTNERS